Ванч

Таджикистан     38°22′17″N   71°27′40″E
темп.,
°C
ветер,
м/с
пор.,
м/с
влажн.,
%
обл.,
%
осадки,
мм/ч
давл.,
гПа
погр.,
м
12 августа, пт
пт1223:00+14зсз22390 0.0 1011164
02:00+12з11460 0.0 101391
05:00+10зсз11500 0.0 101433
08:00+13зсз11391 0.0 1014530
11:00+18з22250 0.0 10091228
14:00+22зсз341834 0.0 10053230
17:00+22зсз44192 0.0 10042461
20:00+19зсз33210 0.0 1006345
13 августа, сб
сб1323:00+15з22320 0.0 1010100
02:00+13з22390 0.0 101241
05:00+11з11450 0.0 101311
08:00+14зсз11340 0.0 1013549
11:00+19з22190 0.0 10091920
14:00+22з23110 0.0 10062655
17:00+22зсз33120 0.0 10042736
20:00+19зсз33160 0.0 1006232
14 августа, вс
вс1423:00+16з22250 0.0 100829
02:00+13зюз22350 0.0 101017
05:00+11з11410 0.0 101210
08:00+15сз11310 0.0 1012523
11:00+20з22216 0.0 10081415
14:00+23зсз3215100 0.0 10042350
17:00+23зсз3216100 0.0 10042103
20:00+21зсз3317100 0.0 1006928
15 августа, пн
пн1523:00+18з222645 0.0 100858
02:00+15з223148 0.0 101012
05:00+13зюз113644 0.0 101110
08:00+16з112889 0.0 1011508
11:00+20з222193 0.0 10081553
14:00+23зсз431993 0.0 10052617
17:00+23зсз431978 0.0 10052776
20:00+20зсз33228 0.0 1007455
16 августа, вт
вт1623:00+17з22285 0.0 100962
02:00+14зюз22331 0.0 101123
05:00+12зюз11390 0.0 101312
08:00+15з21310 0.0 1013596
11:00+19з22220 0.0 10091677
14:00+22зсз451855 0.0 10063216
17:00+22сз351713 0.0 10052988
20:00+19з33190 0.0 1008495